Location: Dodgeville, WI 53533, USA
(43.0344°N, 90.0900°W)
Time: 11:14:16
(UTC-06:00)

STARLINK-11308 [DTC] - Pass Details

Date: 11 October 2024
Orbit: 339 x 340 km, 53.2° (Epoch: 05 November)

Event Time Altitude Azimuth Distance (km) Brightness Sun altitude
Rises 05:18:44 0° 151° (SSE) 2,106 6.9 -21.0°
Enters shadow 06:16:43 -72° 236° (WSW) 12,485 10.4 -10.5°
Maximum altitude 06:55:04 40° 138° (SE) 514 4.0 -3.5°
